[[{"header":{"parameterUnit":"m.s-1","parameterCategory":2,"la1":30.2992,"la2":30.254,"lo1":-89.0895,"lo2":-89.0443,"dy":0.0025,"dx":0.0025,"nx":19,"ny":19,"refTime":"2026-03-12T21:00:00:Z","depth":"0","parameterNumber":2,"parameterNumberName":"U-component_of_CURRENTS"},"data":[0,0,0,-0.0942,-0.0942,-0.0941,-0.0941,-0.0922,-0.0922,0,0,0,0,0,0,0,0,0,0,0,-0.0939,-0.0939,-0.0942,-0.0942,-0.0941,-0.0941,-0.0923,-0.0922,0,0,0,0,0,0,0,0,0,0,0,-0.0939,-0.0939,-0.0939,-0.0942,-0.0941,-0.0941,-0.0923,-0.0926,0,0,0,0,0,0,0,0,0,0,-0.0929,-0.0928,-0.0939,-0.0939,-0.0942,-0.0941,-0.0941,-0.0926,-0.0926,-0.092,0,-0.0922,0,-0.0925,-0.0921,-0.0921,0,0,0,-0.0936,-0.0929,-0.0932,-0.0939,-0.0942,-0.0941,-0.094,-0.0926,-0.0926,-0.0919,-0.0922,-0.0921,-0.0925,-0.0921,-0.0921,-0.0913,-0.0913,0,0,-0.0936,-0.0934,-0.0933,-0.0932,-0.0944,-0.094,-0.094,-0.0926,-0.0924,-0.0922,-0.0921,-0.0925,-0.0921,-0.0921,-0.0913,-0.0913,0,0,0,-0.094,-0.0934,-0.0938,-0.0933,-0.0936,-0.094,-0.094,-0.0924,-0.0927,-0.0921,-0.0925,-0.0921,-0.0921,-0.0913,-0.0913,-0.0917,0,0,0,-0.094,-0.0937,-0.0938,-0.0936,-0.0936,-0.0932,-0.0938,-0.0927,-0.0926,-0.0925,-0.0921,-0.0921,-0.0913,-0.0913,-0.0917,-0.092,0,0,0,-0.0938,-0.0936,-0.0938,-0.0936,-0.0939,-0.0932,-0.0934,-0.0927,-0.0929,-0.0921,-0.0921,-0.0913,-0.0913,-0.0917,-0.0919,-0.0898,0,0,0,-0.0933,-0.094,-0.0938,-0.0946,-0.0939,-0.0946,-0.0934,-0.0935,-0.093,-0.0921,-0.0913,-0.0913,-0.0916,-0.0919,-0.0898,-0.0798,-0.0789,0,0,-0.0941,-0.0941,-0.0947,-0.0945,-0.0955,-0.0946,-0.0947,-0.0935,-0.0928,-0.0915,-0.0915,-0.0917,-0.0919,-0.0898,-0.0802,-0.0793,0,0,0,-0.0949,-0.0948,-0.0953,-0.0956,-0.0962,-0.0956,-0.0947,-0.094,-0.0926,-0.0927,-0.0917,-0.0918,-0.0905,-0.0845,-0.0838,-0.0736,-0.0913,-0.0913,-0.0913,-0.0942,-0.095,-0.0955,-0.096,-0.0963,-0.096,-0.0953,-0.0939,-0.0933,-0.0927,-0.0922,-0.091,-0.0846,-0.084,-0.0737,-0.0921,-0.0921,-0.0921,-0.0921,-0.0941,-0.0937,-0.0947,-0.0954,-0.0955,-0.0954,-0.0948,-0.0942,-0.0923,-0.0925,-0.0911,-0.0853,-0.0832,-0.0725,-0.0922,-0.0922,-0.0922,-0.0922,-0.0922,-0.0923,-0.0921,-0.093,-0.0935,-0.0938,-0.0943,-0.0932,-0.0933,-0.0923,-0.0917,-0.0831,-0.083,-0.0734,-0.0901,-0.0901,-0.0901,-0.0901,-0.0901,-0.0901,-0.0894,-0.0904,-0.0899,-0.0911,-0.0911,-0.0915,-0.0919,-0.0904,-0.0852,-0.0825,-0.0824,-0.0707,-0.0903,-0.0902,-0.09,-0.09,-0.09,-0.09,-0.09,-0.0851,-0.0862,-0.0852,-0.0852,-0.0856,-0.0824,-0.0855,-0.0783,-0.0768,-0.0716,-0.0579,-0.0766,-0.0751,-0.0755,-0.075,-0.0709,-0.0709,-0.0709,-0.0709,-0.0815,-0.0823,-0.0796,-0.0785,-0.0782,-0.0775,-0.0676,-0.0612,-0.0505,-0.0421,-0.0444,-0.0414,-0.0426,-0.0391,-0.0404,-0.0391,-0.026,-0.026,-0.0259,-0.0774,-0.0777,-0.0739,-0.0739,-0.0736,-0.0699,-0.0559,-0.0385,-0.0243,-0.0235,-0.0323,-0.0342,-0.0296,-0.0323,-0.027,-0.0296,-0.0277,0,0]},{"header":{"parameterUnit":"m.s-1","parameterCategory":2,"la1":30.2992,"la2":30.254,"lo1":-89.0895,"lo2":-89.0443,"dy":0.0025,"dx":0.0025,"nx":19,"ny":19,"refTime":"2026-03-12T21:00:00:Z","depth":"0","parameterNumber":3,"parameterNumberName":"V-component_of_CURRENTS"},"data":[0,0,0,-0.0277,-0.0277,-0.027,-0.027,-0.0249,-0.0249,0,0,0,0,0,0,0,0,0,0,0,-0.0278,-0.0278,-0.0277,-0.0277,-0.027,-0.027,-0.0249,-0.0249,0,0,0,0,0,0,0,0,0,0,0,-0.0278,-0.0278,-0.0278,-0.0277,-0.027,-0.027,-0.0249,-0.0257,0,0,0,0,0,0,0,0,0,0,-0.0265,-0.0269,-0.0278,-0.0278,-0.0277,-0.027,-0.027,-0.0257,-0.0256,-0.0251,0,-0.0251,0,-0.0252,-0.0248,-0.0248,0,0,0,-0.0274,-0.027,-0.0269,-0.0278,-0.0277,-0.027,-0.0272,-0.0257,-0.0256,-0.025,-0.0251,-0.025,-0.0252,-0.0248,-0.0248,-0.0236,-0.0236,0,0,-0.0274,-0.0275,-0.0269,-0.0268,-0.0277,-0.0272,-0.0272,-0.0256,-0.0255,-0.0251,-0.025,-0.0251,-0.0248,-0.0248,-0.0236,-0.0236,0,0,0,-0.0278,-0.0276,-0.0275,-0.0269,-0.0269,-0.0272,-0.0272,-0.0256,-0.0256,-0.025,-0.0251,-0.0248,-0.0247,-0.0236,-0.0236,-0.0257,0,0,0,-0.0278,-0.0278,-0.0275,-0.0275,-0.027,-0.0264,-0.0272,-0.0257,-0.0255,-0.0251,-0.0248,-0.0247,-0.0236,-0.0236,-0.0257,-0.0262,0,0,0,-0.0278,-0.0278,-0.0278,-0.0276,-0.0274,-0.0265,-0.0264,-0.0257,-0.0256,-0.0248,-0.0247,-0.0236,-0.0236,-0.0256,-0.0261,-0.0237,0,0,0,-0.0279,-0.0287,-0.0278,-0.0288,-0.0275,-0.0278,-0.0264,-0.0263,-0.0258,-0.0247,-0.0236,-0.0236,-0.0256,-0.0261,-0.0237,-0.0181,-0.0176,0,0,-0.0292,-0.0289,-0.0295,-0.0287,-0.03,-0.0279,-0.0284,-0.027,-0.0255,-0.0239,-0.0239,-0.0257,-0.0261,-0.0237,-0.0182,-0.0178,0,0,0,-0.0301,-0.0307,-0.0308,-0.0312,-0.0309,-0.0301,-0.0287,-0.0276,-0.0261,-0.0252,-0.0251,-0.0253,-0.0237,-0.0203,-0.0199,-0.013,-0.0236,-0.0236,-0.0236,-0.0319,-0.0321,-0.0335,-0.0335,-0.0332,-0.0316,-0.0305,-0.0285,-0.0273,-0.0268,-0.0267,-0.0258,-0.0223,-0.0219,-0.0149,-0.0264,-0.0264,-0.0264,-0.0264,-0.0347,-0.0359,-0.0355,-0.0369,-0.0356,-0.0353,-0.0323,-0.0309,-0.028,-0.0278,-0.0261,-0.0223,-0.0217,-0.0143,-0.0266,-0.0265,-0.0265,-0.0265,-0.0265,-0.0366,-0.0373,-0.0379,-0.0395,-0.0392,-0.0374,-0.0352,-0.0329,-0.0295,-0.0285,-0.0218,-0.0217,-0.0152,-0.0267,-0.0267,-0.0267,-0.0267,-0.0267,-0.0267,-0.0383,-0.0391,-0.0411,-0.042,-0.0425,-0.0411,-0.0367,-0.0332,-0.0261,-0.0228,-0.0227,-0.0135,-0.0258,-0.0259,-0.0266,-0.0266,-0.0266,-0.0266,-0.0266,-0.0409,-0.0413,-0.0443,-0.0454,-0.0457,-0.0419,-0.0378,-0.0263,-0.022,-0.0167,-0.0065,-0.0187,-0.0167,-0.0169,-0.0166,-0.0149,-0.0149,-0.0149,-0.0149,-0.0424,-0.043,-0.0466,-0.0484,-0.0479,-0.0425,-0.0292,-0.0167,-0.0042,0.0026,0.0022,0.0036,0.0028,0.006,0.0053,0.006,0.0134,0.0134,0.0135,-0.044,-0.0451,-0.0475,-0.0494,-0.0489,-0.0408,-0.0232,0.0017,0.0164,0.0151,0.0108,0.0096,0.0119,0.0101,0.0151,0.0135,0.0146,0,0]}],[{"header":{"parameterUnit":"m.s-1","parameterCategory":2,"la1":30.2992,"la2":30.254,"lo1":-89.0895,"lo2":-89.0443,"dy":0.0025,"dx":0.0025,"nx":19,"ny":19,"refTime":"2026-03-12T21:00:00:Z","depth":"2","parameterNumber":2,"parameterNumberName":"U-component_of_CURRENTS"},"data":[0,0,0,-0.0885,-0.0886,-0.089,-0.089,-0.0883,-0.0883,0,0,0,0,0,0,0,0,0,0,0,-0.0881,-0.0881,-0.0885,-0.0886,-0.089,-0.089,-0.0883,-0.0883,0,0,0,0,0,0,0,0,0,0,0,-0.0881,-0.0881,-0.0882,-0.0886,-0.089,-0.089,-0.0883,-0.0882,0,0,0,0,0,0,0,0,0,0,-0.0879,-0.0877,-0.0881,-0.0882,-0.0886,-0.089,-0.089,-0.0882,-0.0882,-0.0879,0,-0.0881,0,-0.0885,-0.0883,-0.0883,0,0,0,-0.0882,-0.0877,-0.0881,-0.0882,-0.0886,-0.089,-0.0887,-0.0882,-0.0882,-0.0879,-0.0881,-0.0881,-0.0884,-0.0883,-0.0883,-0.0884,-0.0884,0,0,-0.0882,-0.0879,-0.0881,-0.0881,-0.0888,-0.0887,-0.0887,-0.0882,-0.0881,-0.0881,-0.0881,-0.0884,-0.0883,-0.0883,-0.0884,-0.0884,0,0,0,-0.0884,-0.0879,-0.0883,-0.0881,-0.0884,-0.0887,-0.0887,-0.0881,-0.0883,-0.0881,-0.0884,-0.0883,-0.0883,-0.0884,-0.0884,-0.0887,0,0,0,-0.0883,-0.088,-0.0883,-0.088,-0.0884,-0.0884,-0.0886,-0.0883,-0.0883,-0.0884,-0.0883,-0.0883,-0.0884,-0.0884,-0.0887,-0.0889,0,0,0,-0.0881,-0.088,-0.0881,-0.088,-0.0885,-0.0884,-0.0886,-0.0883,-0.0885,-0.0883,-0.0883,-0.0884,-0.0884,-0.0887,-0.0889,-0.0867,0,0,0,-0.0876,-0.0883,-0.0881,-0.089,-0.0885,-0.0896,-0.0886,-0.0891,-0.089,-0.0883,-0.0884,-0.0884,-0.0887,-0.0888,-0.0867,-0.0767,-0.0758,0,0,-0.0883,-0.0883,-0.0889,-0.0889,-0.09,-0.0895,-0.0901,-0.0895,-0.089,-0.0884,-0.0884,-0.0887,-0.0888,-0.0867,-0.0774,-0.0765,0,0,0,-0.0891,-0.0891,-0.0896,-0.0901,-0.0909,-0.0908,-0.0905,-0.09,-0.0893,-0.0891,-0.0889,-0.089,-0.0876,-0.0816,-0.0809,-0.0885,-0.0885,-0.0885,-0.0885,-0.0885,-0.0894,-0.09,-0.0907,-0.0914,-0.0916,-0.0913,-0.0904,-0.0901,-0.0897,-0.0894,-0.0882,-0.0819,-0.0812,-0.0895,-0.0895,-0.0895,-0.0895,-0.0895,-0.0885,-0.0882,-0.0895,-0.0904,-0.0909,-0.0913,-0.0912,-0.0909,-0.0894,-0.0897,-0.0883,-0.0824,-0.0804,-0.0895,-0.0895,-0.0895,-0.0895,-0.0895,-0.0895,-0.0869,-0.0868,-0.0878,-0.0886,-0.0894,-0.0904,-0.0896,-0.0901,-0.0894,-0.0888,-0.0802,-0.0801,-0.0874,-0.0872,-0.0872,-0.0872,-0.0872,-0.0872,-0.0872,-0.084,-0.0852,-0.085,-0.0865,-0.0867,-0.0874,-0.0882,-0.0869,-0.082,-0.0795,-0.0794,-0.0874,-0.0875,-0.0872,-0.0871,-0.0871,-0.0871,-0.0871,-0.0871,-0.0801,-0.0811,-0.0804,-0.0807,-0.0814,-0.0783,-0.0816,-0.0745,-0.0733,-0.0682,-0.0732,-0.0736,-0.072,-0.0725,-0.0719,-0.0677,-0.0677,-0.0677,-0.0677,-0.0766,-0.0775,-0.0751,-0.0742,-0.0739,-0.0733,-0.0636,-0.0577,-0.0564,-0.0547,-0.0553,-0.0539,-0.0548,-0.0524,-0.0533,-0.0523,-0.0431,-0.0431,-0.043,-0.0729,-0.0731,-0.0697,-0.0697,-0.0694,-0.0655,-0.0519,-0.0369,-0.0334,-0.0425,-0.0552,-0.0653,-0.0647,-0.0657,-0.0632,-0.0642,-0.0631,0,0]},{"header":{"parameterUnit":"m.s-1","parameterCategory":2,"la1":30.2992,"la2":30.254,"lo1":-89.0895,"lo2":-89.0443,"dy":0.0025,"dx":0.0025,"nx":19,"ny":19,"refTime":"2026-03-12T21:00:00:Z","depth":"2","parameterNumber":3,"parameterNumberName":"V-component_of_CURRENTS"},"data":[0,0,0,-0.0312,-0.0312,-0.0306,-0.0306,-0.0281,-0.0281,0,0,0,0,0,0,0,0,0,0,0,-0.0313,-0.0313,-0.0312,-0.0312,-0.0306,-0.0306,-0.0281,-0.0281,0,0,0,0,0,0,0,0,0,0,0,-0.0313,-0.0313,-0.0313,-0.0312,-0.0306,-0.0306,-0.0282,-0.0289,0,0,0,0,0,0,0,0,0,0,-0.0298,-0.0302,-0.0313,-0.0313,-0.0312,-0.0306,-0.0306,-0.029,-0.0289,-0.0281,0,-0.0282,0,-0.0283,-0.028,-0.028,0,0,0,-0.0308,-0.0303,-0.0302,-0.0313,-0.0312,-0.0306,-0.0308,-0.029,-0.0288,-0.028,-0.0282,-0.0281,-0.0283,-0.0279,-0.0279,-0.0262,-0.0262,0,0,-0.0309,-0.031,-0.0303,-0.0301,-0.0313,-0.0308,-0.0307,-0.0289,-0.0288,-0.0282,-0.0281,-0.0283,-0.0279,-0.0279,-0.0262,-0.0262,0,0,0,-0.0313,-0.031,-0.031,-0.0302,-0.0303,-0.0308,-0.0307,-0.0289,-0.0289,-0.0281,-0.0282,-0.0279,-0.0279,-0.0262,-0.0262,-0.0283,0,0,0,-0.0313,-0.0313,-0.031,-0.031,-0.0304,-0.0298,-0.0307,-0.029,-0.0288,-0.0282,-0.0279,-0.0279,-0.0262,-0.0262,-0.0283,-0.029,0,0,0,-0.0313,-0.0313,-0.0313,-0.031,-0.031,-0.0299,-0.0298,-0.029,-0.0289,-0.028,-0.0279,-0.0262,-0.0262,-0.0282,-0.0289,-0.0273,0,0,0,-0.0313,-0.0322,-0.0313,-0.0322,-0.031,-0.0312,-0.0298,-0.0296,-0.029,-0.0279,-0.0262,-0.0262,-0.0282,-0.0289,-0.0272,-0.0227,-0.0224,0,0,-0.0326,-0.0323,-0.0329,-0.0322,-0.0332,-0.0313,-0.0315,-0.03,-0.0285,-0.0266,-0.0266,-0.0283,-0.0289,-0.0273,-0.0225,-0.0222,0,0,0,-0.0335,-0.034,-0.0341,-0.0344,-0.034,-0.0331,-0.0316,-0.0305,-0.0288,-0.0282,-0.0276,-0.0279,-0.0268,-0.024,-0.0238,-0.0262,-0.0262,-0.0262,-0.0262,-0.0353,-0.0353,-0.0366,-0.0364,-0.036,-0.0343,-0.0333,-0.0311,-0.0298,-0.0293,-0.0292,-0.0288,-0.0259,-0.0256,-0.0287,-0.0287,-0.0287,-0.0287,-0.0287,-0.0379,-0.039,-0.0384,-0.0396,-0.0382,-0.0378,-0.0347,-0.0333,-0.0306,-0.0301,-0.0289,-0.0258,-0.0255,-0.0289,-0.0289,-0.0289,-0.0288,-0.0288,-0.0288,-0.0397,-0.0403,-0.0409,-0.0421,-0.0418,-0.0399,-0.038,-0.0356,-0.0324,-0.0316,-0.0262,-0.0261,-0.0294,-0.0303,-0.0303,-0.0303,-0.0303,-0.0303,-0.0303,-0.0415,-0.0421,-0.044,-0.0447,-0.0452,-0.0439,-0.0398,-0.0369,-0.0307,-0.0275,-0.0274,-0.0293,-0.0292,-0.0294,-0.0303,-0.0303,-0.0303,-0.0303,-0.0303,-0.044,-0.0444,-0.0472,-0.0484,-0.0488,-0.0459,-0.0419,-0.0321,-0.0284,-0.0239,-0.0241,-0.0243,-0.0226,-0.0227,-0.0227,-0.0217,-0.0217,-0.0217,-0.0217,-0.0456,-0.046,-0.0497,-0.0516,-0.0515,-0.047,-0.0365,-0.0257,-0.0193,-0.0163,-0.0166,-0.0159,-0.0163,-0.0143,-0.0146,-0.0144,-0.0113,-0.0113,-0.0112,-0.0471,-0.0482,-0.0508,-0.0528,-0.0528,-0.0462,-0.0327,-0.0179,-0.0106,-0.011,-0.0167,-0.0206,-0.0203,-0.0208,-0.0181,-0.0184,-0.0182,0,0]}],[{"header":{"parameterUnit":"m.s-1","parameterCategory":2,"la1":30.2992,"la2":30.254,"lo1":-89.0895,"lo2":-89.0443,"dy":0.0025,"dx":0.0025,"nx":19,"ny":19,"refTime":"2026-03-12T21:00:00:Z","depth":"4","parameterNumber":2,"parameterNumberName":"U-component_of_CURRENTS"},"data":[0,0,0,-0.07,-0.0701,-0.0749,-0.075,-0.0786,-0.0786,0,0,0,0,0,0,0,0,0,0,0,-0.0685,-0.0685,-0.07,-0.0701,-0.0749,-0.075,-0.0786,-0.0786,0,0,0,0,0,0,0,0,0,0,0,-0.0685,-0.0685,-0.0686,-0.0701,-0.0749,-0.075,-0.0786,-0.0756,0,0,0,0,0,0,0,0,0,0,-0.0712,-0.0704,-0.0685,-0.0686,-0.0701,-0.0749,-0.075,-0.0755,-0.0758,-0.0756,0,-0.0766,0,-0.0775,-0.0788,-0.0788,0,0,0,-0.0702,-0.0702,-0.0712,-0.0686,-0.0702,-0.0749,-0.0728,-0.0757,-0.076,-0.076,-0.0767,-0.0768,-0.0776,-0.0788,-0.0788,-0.0816,-0.0816,0,0,-0.07,-0.0696,-0.071,-0.0714,-0.0718,-0.0726,-0.0729,-0.0759,-0.0765,-0.0767,-0.0769,-0.0776,-0.0788,-0.0788,-0.0816,-0.0816,0,0,0,-0.0691,-0.0694,-0.0704,-0.0712,-0.0722,-0.0728,-0.0731,-0.0764,-0.0766,-0.077,-0.0777,-0.0788,-0.0788,-0.0815,-0.0816,-0.082,0,0,0,-0.0689,-0.0689,-0.0703,-0.0702,-0.0722,-0.0748,-0.0735,-0.0764,-0.0768,-0.0776,-0.0788,-0.0789,-0.0815,-0.0816,-0.0819,-0.082,0,0,0,-0.0682,-0.0688,-0.0694,-0.0701,-0.0721,-0.0748,-0.0752,-0.0766,-0.0772,-0.0788,-0.0789,-0.0815,-0.0815,-0.0819,-0.0819,-0.08,0,0,0,-0.0676,-0.0687,-0.0694,-0.0712,-0.0721,-0.075,-0.0752,-0.0779,-0.0794,-0.0788,-0.0815,-0.0816,-0.0819,-0.0819,-0.08,-0.0702,0,0,0,-0.0684,-0.0688,-0.0698,-0.0705,-0.073,-0.0743,-0.077,-0.0791,-0.0796,-0.0804,-0.0805,-0.0819,-0.0819,-0.08,-0.072,0,0,0,0,-0.0697,-0.0702,-0.0712,-0.073,-0.0751,-0.0771,-0.0793,-0.0798,-0.0814,-0.0806,-0.0824,-0.0824,-0.0811,-0.0755,-0.0817,-0.0817,-0.0817,-0.0817,-0.0817,-0.0695,-0.0708,-0.0725,-0.0744,-0.0765,-0.0793,-0.0807,-0.0817,-0.0823,-0.0829,-0.0831,-0.0824,-0.0766,-0.0835,-0.0835,-0.0835,-0.0835,-0.0835,-0.0835,-0.0697,-0.07,-0.0728,-0.075,-0.0775,-0.08,-0.0821,-0.0827,-0.083,-0.0838,-0.0825,-0.0768,-0.0836,-0.0836,-0.0836,-0.0835,-0.0835,-0.0835,-0.0835,-0.0682,-0.0683,-0.0709,-0.074,-0.0772,-0.0802,-0.0807,-0.0828,-0.0831,-0.0829,-0.0752,-0.082,-0.0814,-0.0817,-0.0817,-0.0817,-0.0817,-0.0817,-0.0817,-0.0647,-0.0671,-0.0687,-0.0726,-0.0745,-0.077,-0.0799,-0.0789,-0.0798,-0.0744,-0.0825,-0.0817,-0.0818,-0.0813,-0.0816,-0.0816,-0.0816,-0.0816,-0.0816,-0.0608,-0.0628,-0.0641,-0.0662,-0.0696,-0.0705,-0.0752,-0.0707,-0.0683,-0.064,-0.0689,-0.0696,-0.068,-0.0684,-0.0673,-0.0635,-0.0633,-0.0632,0,-0.0575,-0.0588,-0.0594,-0.0604,-0.0609,-0.0654,-0.0603,-0.0601,-0.0597,-0.058,-0.0682,-0.0739,-0.0743,-0.0729,-0.073,-0.0719,0,0,0,-0.0543,-0.0551,-0.0537,-0.0557,-0.0559,-0.0547,-0.0581,-0.0546,-0.0612,-0.055,-0.06,-0.0608,-0.074,-0.0812,-0.0803,-0.0804,-0.0795,0,0]},{"header":{"parameterUnit":"m.s-1","parameterCategory":2,"la1":30.2992,"la2":30.254,"lo1":-89.0895,"lo2":-89.0443,"dy":0.0025,"dx":0.0025,"nx":19,"ny":19,"refTime":"2026-03-12T21:00:00:Z","depth":"4","parameterNumber":3,"parameterNumberName":"V-component_of_CURRENTS"},"data":[0,0,0,-0.0248,-0.0248,-0.0257,-0.0257,-0.0241,-0.0241,0,0,0,0,0,0,0,0,0,0,0,-0.0244,-0.0244,-0.0248,-0.0248,-0.0257,-0.0257,-0.0241,-0.0241,0,0,0,0,0,0,0,0,0,0,0,-0.0244,-0.0244,-0.0244,-0.0248,-0.0257,-0.0257,-0.0241,-0.024,0,0,0,0,0,0,0,0,0,0,-0.0234,-0.0238,-0.0244,-0.0244,-0.0248,-0.0257,-0.0257,-0.024,-0.024,-0.023,0,-0.0235,0,-0.0238,-0.0239,-0.0239,0,0,0,-0.0244,-0.0238,-0.024,-0.0244,-0.0248,-0.0257,-0.0252,-0.024,-0.024,-0.023,-0.0235,-0.0234,-0.0238,-0.0239,-0.0239,-0.0223,-0.0223,0,0,-0.0244,-0.0245,-0.024,-0.024,-0.0254,-0.0252,-0.0252,-0.024,-0.0241,-0.0234,-0.0234,-0.0238,-0.0239,-0.0239,-0.0223,-0.0223,0,0,0,-0.0245,-0.0244,-0.0247,-0.024,-0.0245,-0.0252,-0.0253,-0.0242,-0.0243,-0.0234,-0.0238,-0.0239,-0.0239,-0.0223,-0.0223,-0.0243,0,0,0,-0.0244,-0.0245,-0.0247,-0.0247,-0.0245,-0.0248,-0.0254,-0.0244,-0.0243,-0.0238,-0.0239,-0.0238,-0.0223,-0.0223,-0.0242,-0.0252,0,0,0,-0.0243,-0.0245,-0.0247,-0.0247,-0.0253,-0.0248,-0.0248,-0.0244,-0.0245,-0.0239,-0.0238,-0.0223,-0.0223,-0.0242,-0.0251,-0.0244,0,0,0,-0.0241,-0.0252,-0.0247,-0.0259,-0.0253,-0.0259,-0.0249,-0.0252,-0.0249,-0.0239,-0.0223,-0.0223,-0.0242,-0.0251,-0.0243,-0.0222,0,0,0,-0.0254,-0.0253,-0.026,-0.0256,-0.0268,-0.0258,-0.0263,-0.0255,-0.0243,-0.0224,-0.0224,-0.0242,-0.0251,-0.0244,-0.0218,0,0,0,0,-0.0263,-0.0269,-0.0272,-0.0278,-0.0278,-0.0276,-0.0267,-0.0258,-0.0247,-0.0242,-0.0236,-0.024,-0.0235,-0.0221,-0.0223,-0.0223,-0.0223,-0.0223,-0.0223,-0.028,-0.0281,-0.0294,-0.0295,-0.0296,-0.0287,-0.0281,-0.0265,-0.0254,-0.0251,-0.0252,-0.0253,-0.0239,-0.0245,-0.0245,-0.0245,-0.0245,-0.0245,-0.0245,-0.0301,-0.031,-0.031,-0.0324,-0.0317,-0.0318,-0.0294,-0.0285,-0.0267,-0.026,-0.0254,-0.0237,-0.0247,-0.0247,-0.0246,-0.0246,-0.0246,-0.0246,-0.0246,-0.0313,-0.0318,-0.033,-0.0348,-0.0352,-0.0341,-0.0331,-0.0312,-0.0286,-0.0282,-0.0252,-0.026,-0.0264,-0.0275,-0.0275,-0.0275,-0.0275,-0.0275,-0.0275,-0.0322,-0.0333,-0.0356,-0.0371,-0.0383,-0.0381,-0.0354,-0.0333,-0.0303,-0.027,-0.0285,-0.0263,-0.0262,-0.0265,-0.0275,-0.0275,-0.0275,-0.0275,-0.0275,-0.0336,-0.0346,-0.0379,-0.0398,-0.0418,-0.0407,-0.0386,-0.032,-0.0295,-0.0261,-0.0255,-0.0256,-0.0244,-0.0243,-0.0245,-0.025,-0.025,-0.025,0,-0.0346,-0.0353,-0.0398,-0.0427,-0.0434,-0.042,-0.0367,-0.0329,-0.0284,-0.028,-0.0307,-0.0304,-0.0303,-0.0294,-0.0292,-0.0297,0,0,0,-0.0355,-0.0369,-0.04,-0.0431,-0.0441,-0.038,-0.0349,-0.032,-0.0292,-0.0247,-0.0244,-0.0245,-0.0279,-0.0276,-0.0259,-0.0258,-0.0261,0,0]}]]